Wind_Speed
79 81 81 78 77 76 73 68 63 61 58 67 68 67 67 70 69 68 68 72 71 69 67 69 69 65 64 61 58 58 57 53 49 52 51 48 49 51 49 48 49 46 42
89 87 84 84 83 81 80 76 70 70 69 65 67 69 75 68 70 72 73 68 70 70 70 66 70 69 69 66 60 59 60 62 58 55 55 56 53 55 53 52 53 52 51
98 97 94 91 89 86 83 81 82 79 76 74 70 69 70 75 74 70 71 73 68 71 73 69 70 70 66 67 65 59 61 67 64 61 61 60 60 61 58 56 53 54 54
102 99 97 96 92 88 88 88 85 82 81 78 76 75 73 73 77 82 75 72 73 72 75 79 76 74 72 69 69 69 66 65 68 64 64 60 61 61 62 60 57 56 57
106 105 100 97 96 95 94 93 92 89 86 83 81 78 77 75 75 78 84 83 78 77 76 71 77 79 76 72 70 70 69 67 67 65 64 64 64 64 60 60 60 60 61
108 108 105 102 99 98 97 95 93 94 93 89 88 87 82 75 77 78 81 85 87 82 81 82 76 79 81 78 75 73 74 72 73 71 69 69 70 68 68 65 64 63 60
112 111 110 106 104 101 99 96 94 94 96 95 94 91 86 85 79 78 79 82 86 86 86 83 82 82 82 85 88 83 80 79 80 80 75 74 74 73 70 69 67 67 63
113 112 112 115 111 106 103 101 99 99 97 96 95 93 91 91 90 86 86 83 84 87 89 90 88 88 87 86 91 90 88 85 80 81 80 79 77 81 77 76 77 75 70
111 115 116 115 115 115 109 105 103 102 99 98 96 94 91 92 93 89 88 89 88 88 89 90 95 95 94 93 91 90 89 88 90 85 87 85 83 82 83 84 84 83 75
95 104 110 113 114 115 116 114 111 106 103 101 100 96 92 92 91 90 90 91 93 93 92 90 90 99 100 98 95 91 93 93 92 93 94 102 88 86 85 85 84 83 81
65 80 94 103 106 109 112 112 110 108 107 105 101 96 92 88 87 85 86 89 88 93 98 97 95 93 104 104 103 98 93 97 99 98 97 91 91 90 89 88 91 90 87
41 50 62 73 88 97 104 105 106 104 101 98 95 91 88 84 80 81 81 81 82 82 85 89 97 100 95 106 108 106 102 101 104 104 108 110 106 98 95 94 95 95 91
29 36 42 49 57 68 77 87 92 94 95 93 92 87 84 82 81 79 79 79 79 79 78 80 84 93 99 100 106 111 113 108 104 105 107 109 111 109 105 102 101 99 95
20 24 29 34 39 44 48 54 60 75 83 83 82 83 85 84 83 81 79 79 77 74 75 75 76 81 89 96 102 105 112 114 113 115 110 109 110 107 103 101 102 99 97
4 9 14 21 28 35 40 43 45 53 64 72 76 80 84 86 85 84 80 79 78 77 79 78 76 77 83 87 95 103 104 114 115 118 118 120 118 114 109 109 112 104 100
6 8 7 14 19 26 34 41 48 52 59 66 72 80 85 87 87 87 85 82 82 82 81 82 83 82 84 84 88 94 104 107 111 120 122 125 121 119 116 113 113 104 97
11 10 11 11 15 22 30 37 42 49 56 63 70 75 80 84 86 87 88 87 85 85 87 87 87 88 88 88 87 88 94 98 107 112 116 123 124 126 122 118 112 106 102
11 11 16 19 19 22 24 29 34 43 51 59 64 68 73 77 80 84 87 89 90 90 89 89 90 91 92 92 91 90 89 86 88 93 101 107 111 123 124 123 125 119 112
12 12 13 15 18 21 27 32 36 39 43 46 50 54 56 60 64 71 75 79 82 82 83 85 87 87 88 90 93 93 91 92 89 86 83 84 84 86 94 105 115 121 128
25 22 19 16 15 16 18 23 28 34 39 45 50 55 58 61 63 65 68 69 70 71 71 70 73 75 76 78 79 81 82 84 87 87 86 85 82 83 85 84 86 88 93
27 25 23 24 22 23 24 23 23 25 27 30 33 39 45 52 58 63 68 70 70 70 71 71 71 69 70 71 72 73 74 75 78 79 80 81 82 81 82 82 84 88 90
23 22 18 13 14 16 18 24 29 33 36 39 41 41 39 39 40 43 48 54 62 67 70 72 72 72 72 73 73 73 73 73 73 76 75 77 79 79 80 83 85 84 86
25 26 21 20 18 18 19 19 21 28 32 37 41 45 47 48 46 43 40 42 45 49 56 64 70 75 76 77 79 80 80 79 79 78 78 76 75 75 76 75 73 75 77
26 33 30 31 28 26 22 21 20 21 23 27 30 34 41 47 51 53 52 47 44 41 45 48 53 61 68 74 79 83 84 85 86 86 85 84 81 79 75 74 74 74 79
35 40 40 41 38 39 37 32 28 29 25 26 24 27 31 35 38 42 48 51 52 50 44 42 44 46 51 59 65 72 77 81 86 88 89 88 87 82 81 77 77 79 81
37 42 44 45 46 48 43 44 46 48 46 45 43 42 36 36 37 37 38 40 43 48 52 52 47 44 46 47 51 59 66 70 74 79 84 87 89 87 86 83 82 82 86
Wind_Direction
229 231 231 232 232 230 229 227 230 235 237 236 239 240 245 248 249 250 249 249 249 250 247 247 249 253 253 254 253 260 264 266 262 264 264 263 266 271 274 273 279 283 289
230 232 233 233 234 235 234 231 230 234 237 238 238 241 241 244 246 249 250 250 247 247 249 248 247 249 251 252 251 254 258 265 267 268 273 267 273 271 272 273 279 279 284
233 231 232 233 233 234 237 238 238 240 238 240 242 242 242 243 243 247 246 248 249 243 244 245 247 247 251 253 252 253 256 259 265 268 271 277 274 278 275 278 286 285 281
238 238 236 236 236 236 236 238 241 242 243 241 242 245 244 245 246 245 245 245 247 248 244 244 244 247 248 252 253 252 251 253 258 264 269 273 274 276 274 278 281 281 284
238 239 239 240 240 240 240 239 240 242 244 245 246 246 248 247 247 248 247 246 245 247 251 251 245 244 247 248 250 253 253 252 253 258 262 263 268 267 269 274 276 278 284
236 240 239 239 240 241 242 243 243 243 244 245 246 246 248 249 250 251 250 249 248 247 247 250 250 246 244 244 247 250 253 256 254 257 260 262 262 264 267 269 272 275 278
238 239 242 241 240 240 242 243 243 244 245 246 247 247 249 249 251 254 254 252 250 247 245 246 250 252 248 244 245 245 248 252 253 255 256 256 259 262 266 268 271 272 274
234 238 242 244 243 242 242 242 243 244 245 246 248 250 251 252 252 253 255 256 256 252 248 245 245 246 251 250 248 249 249 248 250 253 253 254 256 260 263 265 268 270 271
235 234 235 236 240 244 245 244 244 245 246 248 249 251 251 253 253 255 257 259 258 255 253 249 245 245 246 249 250 249 250 250 251 252 254 252 253 255 259 262 266 270 271
235 237 239 238 237 241 242 242 244 246 247 249 250 251 252 256 258 259 259 259 258 258 257 254 252 245 245 247 248 249 250 251 248 249 257 252 250 253 256 260 262 266 268
238 237 238 240 240 240 241 243 242 242 244 247 250 252 255 257 258 260 261 260 260 258 257 254 251 251 245 245 246 247 249 250 251 249 254 255 255 254 256 260 263 266 267
243 240 238 239 241 241 242 243 245 246 245 247 249 252 254 256 258 259 260 261 260 259 257 255 252 250 250 246 245 244 245 249 251 250 251 257 257 256 259 261 265 268 268
238 235 236 239 240 245 245 246 247 248 249 248 249 251 254 256 257 257 259 261 261 259 258 257 255 251 251 249 247 246 247 246 250 255 255 256 258 257 259 260 263 267 269
230 231 232 231 233 233 233 231 238 243 244 246 248 251 252 253 254 255 257 259 258 258 258 257 257 255 251 250 249 250 248 248 249 253 255 255 257 258 260 260 261 264 264
319 240 227 224 223 223 220 222 227 236 241 244 246 248 250 252 253 255 257 258 257 257 257 256 257 256 254 254 252 250 252 249 249 250 252 256 259 260 261 259 265 268 264
358 322 276 244 234 232 231 226 224 228 233 239 243 245 248 250 253 255 256 258 257 258 258 258 258 258 258 257 256 255 253 253 253 251 253 254 256 259 262 263 266 265 257
313 306 293 273 264 254 245 241 241 243 246 249 251 253 254 256 257 259 259 260 261 260 260 260 260 260 260 260 260 261 260 259 257 256 256 256 257 258 260 262 265 267 264
307 305 293 289 283 273 262 257 258 256 255 255 257 259 261 262 262 263 264 265 265 265 265 264 263 262 263 264 266 265 266 267 267 267 264 263 262 258 259 262 263 264 264
2 336 311 293 285 281 274 273 274 274 272 272 272 271 269 268 268 267 266 266 266 266 266 266 266 266 265 264 265 267 268 269 270 270 269 268 268 267 265 264 263 263 262
31 29 23 11 352 329 306 289 279 272 272 270 268 268 268 269 270 271 271 271 270 269 267 266 267 267 266 266 264 264 264 265 265 266 267 265 264 264 264 265 265 265 266
35 28 17 6 355 343 335 328 320 310 301 293 287 284 281 277 276 273 271 270 270 269 269 270 268 266 267 267 268 267 267 266 266 265 266 267 268 268 268 267 267 268 269
38 37 32 18 6 347 330 319 314 313 313 312 310 306 301 292 289 286 282 277 274 272 271 270 269 268 268 266 265 266 266 268 268 268 268 270 270 271 272 271 269 268 268
20 17 15 13 4 347 334 334 316 301 298 298 300 303 306 308 308 304 297 293 289 282 276 273 270 268 267 266 265 264 264 264 264 265 266 267 269 271 272 271 270 267 265
7 8 6 8 7 359 355 351 342 336 304 294 291 299 300 301 303 304 307 306 305 296 290 283 277 272 270 268 267 266 265 264 263 263 264 264 265 268 269 271 269 266 260
4 3 1 2 5 5 3 5 358 0 355 356 332 306 310 307 307 305 304 305 306 306 303 297 292 286 279 273 269 267 266 265 263 263 263 263 263 262 263 265 265 264 263
-0 357 356 357 357 360 2 5 4 1 0 1 357 350 338 328 320 315 317 311 309 307 305 305 303 297 293 286 279 273 269 267 265 263 262 261 262 262 262 262 261 260 260
Height
10592 10597 10604 10612 10620 10626 10630 10632 10635 10639 10643 10647 10653 10658 10660 10666 10670 10674 10679 10684 10688 10693 10696 10700 10702 10706 10708 10711 10714 10715 10715 10717 10718 10715 10719 10717 10713 10712 10711 10709 10708 10705 10704
10570 10575 10583 10591 10598 10605 10613 10620 10623 10627 10630 10635 10641 10646 10648 10651 10656 10661 10664 10669 10674 10678 10680 10686 10688 10692 10694 10695 10700 10701 10703 10703 10705 10704 10704 10705 10705 10702 10701 10701 10699 10697 10694
10548 10554 10562 10568 10576 10586 10596 10604 10610 10613 10616 10622 10627 10631 10634 10637 10642 10646 10650 10654 10658 10661 10664 10671 10673 10677 10680 10681 10686 10689 10689 10689 10691 10694 10690 10691 10692 10690 10690 10688 10688 10687 10685
10526 10537 10549 10555 10563 10571 10576 10580 10589 10595 10600 10606 10610 10614 10619 10622 10625 10628 10633 10637 10640 10644 10649 10655 10658 10663 10666 10667 10669 10672 10673 10676 10678 10681 10680 10677 10678 10675 10676 10673 10673 10672 10672
10506 10515 10527 10537 10545 10552 10558 10564 10570 10577 10582 10587 10591 10595 10600 10605 10608 10608 10612 10617 10624 10628 10632 10636 10641 10645 10650 10651 10654 10654 10657 10660 10663 10666 10669 10667 10666 10663 10660 10658 10660 10657 10657
10486 10490 10501 10513 10523 10531 10538 10546 10556 10560 10563 10567 10573 10578 10583 10588 10591 10592 10595 10599 10605 10612 10616 10619 10623 10627 10632 10635 10638 10640 10640 10642 10647 10650 10652 10654 10651 10650 10645 10645 10646 10644 10645
10467 10472 10480 10490 10500 10509 10517 10526 10534 10538 10544 10550 10554 10560 10566 10569 10572 10574 10576 10581 10586 10592 10597 10602 10607 10610 10613 10616 10617 10621 10624 10625 10628 10629 10633 10634 10633 10629 10632 10631 10630 10629 10630
10440 10449 10459 10463 10472 10483 10495 10504 10511 10516 10524 10530 10534 10539 10545 10548 10549 10553 10555 10561 10569 10574 10580 10584 10587 10590 10592 10593 10593 10599 10604 10606 10607 10609 10612 10612 10613 10611 10613 10613 10612 10612 10615
10412 10417 10425 10436 10446 10457 10468 10478 10487 10494 10502 10508 10512 10517 10522 10523 10528 10538 10540 10542 10549 10553 10556 10561 10565 10568 10568 10569 10574 10581 10584 10590 10590 10589 10587 10589 10589 10591 10590 10592 10595 10594 10600
10394 10400 10408 10417 10427 10434 10440 10451 10462 10472 10480 10486 10490 10496 10504 10506 10510 10514 10518 10520 10527 10530 10532 10538 10541 10545 10544 10545 10549 10555 10561 10562 10562 10561 10556 10556 10567 10569 10569 10569 10572 10576 10580
10376 10382 10387 10394 10404 10414 10420 10430 10438 10449 10459 10465 10471 10478 10486 10490 10493 10496 10496 10498 10502 10503 10505 10510 10514 10514 10518 10520 10523 10531 10537 10533 10536 10539 10538 10536 10545 10550 10552 10549 10549 10554 10562
10364 10369 10374 10380 10385 10393 10402 10411 10419 10428 10441 10449 10455 10461 10467 10472 10474 10476 10475 10473 10475 10478 10477 10479 10484 10487 10490 10495 10498 10503 10507 10509 10510 10514 10515 10515 10523 10529 10531 10528 10529 10534 10540
10353 10356 10360 10366 10372 10379 10389 10397 10407 10415 10423 10432 10439 10444 10450 10453 10453 10455 10454 10453 10453 10453 10455 10456 10458 10461 10464 10470 10472 10477 10481 10486 10488 10488 10492 10496 10497 10502 10507 10511 10512 10511 10514
10347 10349 10352 10355 10359 10365 10373 10382 10392 10401 10409 10416 10423 10427 10428 10429 10431 10433 10433 10432 10432 10434 10434 10435 10436 10438 10440 10442 10447 10450 10455 10460 10464 10467 10468 10472 10475 10479 10485 10487 10490 10490 10491
10345 10346 10348 10351 10354 10359 10363 10370 10378 10388 10396 10401 10405 10406 10407 10408 10409 10410 10413 10413 10413 10413 10412 10413 10416 10416 10417 10418 10421 10425 10427 10432 10436 10440 10442 10447 10447 10450 10458 10459 10464 10466 10471
10349 10349 10350 10351 10354 10358 10362 10365 10369 10374 10379 10382 10385 10385 10386 10387 10388 10389 10391 10392 10392 10391 10391 10391 10393 10394 10394 10395 10397 10399 10401 10404 10406 10411 10414 10418 10422 10426 10429 10430 10434 10441 10446
10353 10352 10351 10353 10355 10357 10360 10363 10366 10369 10372 10374 10374 10374 10373 10373 10371 10371 10371 10371 10370 10370 10370 10370 10369 10370 10370 10371 10373 10374 10375 10375 10380 10384 10386 10390 10392 10399 10404 10407 10409 10409 10414
10352 10353 10353 10353 10354 10355 10356 10357 10358 10359 10360 10359 10360 10359 10358 10356 10354 10352 10350 10349 10348 10347 10346 10346 10346 10346 10346 10348 10348 10349 10351 10353 10354 10356 10358 10361 10364 10370 10374 10376 10379 10384 10385
10349 10348 10349 10349 10350 10350 10350 10350 10350 10349 10348 10346 10343 10341 10338 10334 10331 10328 10326 10324 10322 10321 10320 10319 10319 10320 10321 10322 10322 10323 10325 10326 10328 10330 10332 10333 10334 10338 10341 10342 10344 10346 10349
10349 10347 10345 10344 10342 10341 10340 10339 10338 10336 10334 10331 10328 10325 10321 10317 10313 10309 10306 10302 10299 10297 10296 10294 10293 10293 10293 10294 10295 10296 10298 10299 10300 10301 10303 10306 10308 10309 10310 10312 10313 10313 10312
10352 10349 10345 10342 10339 10336 10333 10330 10328 10324 10320 10316 10313 10309 10304 10300 10295 10290 10286 10282 10279 10276 10274 10272 10271 10270 10269 10269 10270 10271 10272 10273 10274 10275 10276 10278 10280 10282 10283 10285 10285 10284 10283
10354 10351 10346 10343 10339 10333 10328 10323 10319 10314 10309 10304 10298 10292 10287 10282 10277 10271 10266 10261 10257 10254 10252 10250 10249 10247 10246 10245 10245 10245 10246 10247 10249 10251 10253 10254 10254 10255 10255 10255 10255 10255 10254
10351 10347 10343 10339 10335 10330 10324 10319 10313 10307 10302 10295 10289 10282 10275 10267 10260 10254 10250 10245 10239 10233 10229 10226 10224 10222 10221 10220 10220 10220 10221 10221 10221 10223 10225 10228 10229 10228 10228 10227 10227 10228 10228
10347 10343 10337 10333 10328 10323 10318 10313 10308 10301 10295 10289 10281 10273 10266 10258 10250 10242 10234 10228 10222 10218 10212 10206 10202 10198 10195 10193 10192 10192 10192 10193 10194 10195 10197 10199 10201 10202 10203 10202 10203 10204 10205
10342 10337 10332 10327 10322 10317 10312 10305 10300 10293 10287 10280 10273 10267 10259 10250 10242 10233 10224 10215 10207 10200 10195 10190 10184 10178 10174 10170 10167 10165 10164 10164 10164 10165 10168 10170 10172 10175 10176 10177 10178 10179 10180
10337 10332 10326 10321 10316 10310 10304 10298 10292 10286 10279 10272 10264 10256 10248 10241 10233 10225 10216 10207 10197 10188 10179 10172 10167 10162 10156 10150 10146 10142 10140 10138 10137 10137 10138 10140 10143 10145 10147 10149 10150 10151 10153